Exceptional Flight Instruction

Our Team

Safe Aircraft

Our Rentals

Outstanding Customer Service

Contact Us

AeroCamp 2017

AeroCamp Times (M-F 9AM-3PM)
June 19-23, 2017 – OPEN
July 10-14, 2017 – OPEN
$649/wk per Cadet (Roster size limited)

AeroCamp 2.0 Times (M-T 9AM-3PM)
June 26-29, 2017 – OPEN
July 17-20, 2017 – OPEN
$749/wk per Cadet (Roster size limited)

AeroCamp 3.0 Times (M-W – INCLUDES KITTY HAWK!)
June 12-14, 2017 – OPEN
August 7-9, 2017 – OPEN
$849/wk per Cadet (Roster size limited)

AeroCamp 4.0 Times (INCLUDES OSHKOSH!!)

July 24-28, 2017 - OPEN

Price TBD (Roster size limited)

About Us

Triad Aviation Academy, LLC


1030 PTI Drive
Greensboro, NC 27409

Phone: (336) 369-2804
Fax: (336) 664-6942

Weather

Available data for KGSO from the past 2 hours
GREENSBORO, NC
Metar
KGSO 191554Z 35010KT 10SM FEW250 17/07 A2999 RMK AO2 SLP152 T01720067

15:54 UTC

Wind: 350° 10kt

Visibility: 10 SM

Sky: FEW 25000 ft

Temp: 17 deg C / 62.6 deg F

Dewpoint: 7 deg C / 44.6 deg F

Pressure: 29.99 inHg

TAF
KGSO 191129Z 1912/2012 29005KT P6SM FEW250